| time (UTC) | temp F | wind direction | speed knots | gust knots | rain 1hr in | rain 24hr in | rain mn in | humidity % | barometer mb |
| 20260508043947 | 61 | 257 | 0.0 | 3.5 | 0.00 | 0.00 | 0.00 | 89 | 1017.0 |
| 20260508043447 | 61 | 217 | 1.7 | 3.5 | 0.00 | 0.00 | 0.00 | 89 | 1016.9 |
| 20260508042947 | 61 | 229 | 3.5 | 4.3 | 0.00 | 0.00 | 0.00 | 89 | 1016.8 |
| 20260508042447 | 61 | 191 | 1.7 | 4.3 | 0.00 | 0.00 | 0.00 | 88 | 1016.7 |
| 20260508041947 | 61 | 171 | 1.7 | 3.5 | 0.00 | 0.00 | 0.00 | 88 | 1016.5 |
| 20260508041447 | 61 | 209 | 0.0 | 3.5 | 0.00 | 0.00 | 0.00 | 87 | 1016.5 |
| 20260508040947 | 61 | 217 | 1.7 | 3.5 | 0.00 | 0.00 | 0.00 | 87 | 1016.4 |
| 20260508040448 | 61 | 246 | 2.6 | 4.3 | 0.00 | 0.00 | 0.00 | 88 | 1016.3 |
| 20260508035948 | 61 | 196 | 0.9 | 4.3 | 0.00 | 0.00 | 0.00 | 87 | 1016.2 |
| 20260508035447 | 61 | 251 | 3.5 | 4.3 | 0.00 | 0.00 | 0.00 | 87 | 1016.1 |
| 20260508034947 | 62 | 236 | 2.6 | 3.5 | 0.00 | 0.00 | 0.00 | 85 | 1016.0 |
| 20260508034447 | 62 | 315 | 2.6 | 3.5 | 0.00 | 0.00 | 0.00 | 85 | 1015.9 |
| 20260508033948 | 62 | 279 | 2.6 | 4.3 | 0.00 | 0.00 | 0.00 | 85 | 1015.8 |
| 20260508033448 | 62 | 285 | 1.7 | 3.5 | 0.00 | 0.00 | 0.00 | 84 | 1015.7 |
| 20260508032948 | 63 | 230 | 0.9 | 4.3 | 0.00 | 0.00 | 0.00 | 83 | 1015.6 |
| 20260508032448 | 63 | 296 | 1.7 | 4.3 | 0.00 | 0.00 | 0.00 | 83 | 1015.5 |
| 20260508031948 | 63 | 278 | 3.5 | 5.2 | 0.00 | 0.00 | 0.00 | 83 | 1015.3 |
| 20260508031448 | 63 | 260 | 2.6 | 4.3 | 0.00 | 0.00 | 0.00 | 82 | 1015.3 |
| 20260508030948 | 64 | 215 | 2.6 | 4.3 | 0.00 | 0.00 | 0.00 | 81 | 1015.0 |
| 20260508030448 | 64 | 282 | 0.9 | 4.3 | 0.00 | 0.00 | 0.00 | 80 | 1014.9 |
| 20260508025948 | 64 | 315 | 1.7 | 5.2 | 0.00 | 0.00 | 0.00 | 80 | 1014.8 |
| 20260508025448 | 64 | 265 | 3.5 | 5.2 | 0.00 | 0.00 | 0.00 | 79 | 1014.7 |
| 20260508024948 | 65 | 265 | 2.6 | 5.2 | 0.00 | 0.00 | 0.00 | 79 | 1014.6 |
| 20260508024448 | 65 | 222 | 4.3 | 5.2 | 0.00 | 0.00 | 0.00 | 78 | 1014.5 |
| 20260508023948 | 65 | 237 | 0.9 | 5.2 | 0.00 | 0.00 | 0.00 | 77 | 1014.3 |
| 20260508023448 | 66 | 255 | 4.3 | 5.2 | 0.00 | 0.00 | 0.00 | 77 | 1014.1 |
| 20260508022948 | 66 | 255 | 2.6 | 5.2 | 0.00 | 0.00 | 0.00 | 76 | 1014.0 |
| 20260508022448 | 66 | 272 | 3.5 | 6.1 | 0.00 | 0.00 | 0.00 | 75 | 1013.0 |
| 20260508021948 | 66 | 261 | 3.5 | 5.2 | 0.00 | 0.00 | 0.00 | 74 | 1013.8 |
| 20260508021448 | 67 | 220 | 3.5 | 5.2 | 0.00 | 0.00 | 0.00 | 72 | 1013.8 |
| 20260508020948 | 68 | 213 | 1.7 | 4.3 | 0.00 | 0.00 | 0.00 | 71 | 1013.7 |
| 20260508020448 | 68 | 274 | 2.6 | 5.2 | 0.00 | 0.00 | 0.00 | 71 | 1013.6 |
| 20260508015948 | 68 | 241 | 4.3 | 5.2 | 0.00 | 0.00 | 0.00 | 71 | 1013.6 |
| 20260508015448 | 68 | 253 | 4.3 | 6.1 | 0.00 | 0.00 | 0.00 | 70 | 1013.6 |
| 20260508014948 | 69 | 286 | 2.6 | 5.2 | 0.00 | 0.00 | 0.00 | 69 | 1013.6 |
| 20260508014448 | 69 | 233 | 2.6 | 5.2 | 0.00 | 0.00 | 0.00 | 68 | 1013.7 |
| 20260508013948 | 69 | 305 | 1.7 | 5.2 | 0.00 | 0.00 | 0.00 | 69 | 1013.6 |
| 20260508013448 | 69 | 254 | 3.5 | 7.0 | 0.00 | 0.00 | 0.00 | 68 | 1013.6 |
| 20260508012948 | 70 | 220 | 3.5 | 4.3 | 0.00 | 0.00 | 0.00 | 67 | 1013.6 |
| 20260508012448 | 69 | 230 | 3.5 | 6.1 | 0.00 | 0.00 | 0.00 | 66 | 1013.6 |
| 20260508011948 | 70 | 220 | 3.5 | 7.0 | 0.00 | 0.00 | 0.00 | 66 | 1013.5 |
| 20260508011448 | 71 | 262 | 4.3 | 6.1 | 0.00 | 0.00 | 0.00 | 65 | 1013.5 |
| 20260508010948 | 70 | 239 | 2.6 | 6.1 | 0.00 | 0.00 | 0.00 | 64 | 1013.5 |
| 20260508010448 | 71 | 199 | 0.0 | 6.1 | 0.00 | 0.00 | 0.00 | 63 | 1013.5 |
| 20260508005948 | 71 | 157 | 1.7 | 5.2 | 0.00 | 0.00 | 0.00 | 64 | 1013.4 |
| 20260508005448 | 71 | 251 | 4.3 | 7.0 | 0.00 | 0.00 | 0.00 | 64 | 1013.4 |
| 20260508004948 | 71 | 271 | 3.5 | 6.1 | 0.00 | 0.00 | 0.00 | 63 | 1013.4 |
| 20260508004448 | 72 | 254 | 4.3 | 7.8 | 0.00 | 0.00 | 0.00 | 61 | 1013.4 |
| 20260508003948 | 72 | 196 | 1.7 | 7.0 | 0.00 | 0.00 | 0.00 | 62 | 1013.4 |
| 20260508003448 | 72 | 233 | 1.7 | 7.8 | 0.00 | 0.00 | 0.00 | 62 | 1013.4 |
| 20260508002948 | 72 | 254 | 6.1 | 7.0 | 0.00 | 0.00 | 0.00 | 61 | 1013.4 |
| 20260508002448 | 72 | 244 | 6.1 | 8.7 | 0.00 | 0.00 | 0.00 | 61 | 1013.4 |
| 20260508001948 | 72 | 217 | 3.5 | 8.7 | 0.00 | 0.00 | 0.00 | 60 | 1013.4 |
| 20260508001448 | 73 | 230 | 5.2 | 7.8 | 0.00 | 0.00 | 0.00 | 60 | 1013.5 |
| 20260508000948 | 72 | 212 | 3.5 | 7.0 | 0.00 | 0.00 | 0.00 | 59 | 1013.6 |
| 20260508000450 | 73 | 232 | 1.7 | 7.8 | 0.00 | 0.00 | 0.00 | 59 | 1013.7 |
| 20260507235948 | 73 | 229 | 0.0 | 6.1 | 0.00 | 0.00 | 0.00 | 58 | 1013.7 |
| 20260507235448 | 73 | 217 | 3.5 | 8.7 | 0.00 | 0.00 | 0.00 | 58 | 1013.7 |
| 20260507234948 | 73 | 244 | 7.8 | 7.8 | 0.00 | 0.00 | 0.00 | 58 | 1013.8 |
| 20260507234448 | 73 | 284 | 0.9 | 7.0 | 0.00 | 0.00 | 0.00 | 59 | 1012.7 |
| 20260507233949 | 73 | 264 | 3.5 | 7.8 | 0.00 | 0.00 | 0.00 | 58 | 1013.8 |
| 20260507233448 | 74 | 281 | 3.5 | 7.0 | 0.00 | 0.00 | 0.00 | 57 | 1013.9 |
| 20260507232948 | 74 | 243 | 3.5 | 7.0 | 0.00 | 0.00 | 0.00 | 58 | 1013.9 |
| 20260507232448 | 74 | 237 | 5.2 | 7.0 | 0.00 | 0.00 | 0.00 | 57 | 1014.0 |
| 20260507231948 | 74 | 284 | 4.3 | 7.0 | 0.00 | 0.00 | 0.00 | 57 | 1014.0 |
| 20260507231448 | 73 | 246 | 4.3 | 7.8 | 0.00 | 0.00 | 0.00 | 57 | 1014.1 |
| 20260507230948 | 73 | 213 | 4.3 | 8.7 | 0.00 | 0.00 | 0.00 | 57 | 1014.2 |
| 20260507230448 | 73 | 189 | 2.6 | 7.8 | 0.00 | 0.00 | 0.00 | 58 | 1014.2 |
| 20260507225948 | 73 | 220 | 5.2 | 7.8 | 0.00 | 0.00 | 0.00 | 57 | 1014.3 |
| 20260507225448 | 74 | 246 | 0.0 | 8.7 | 0.00 | 0.00 | 0.00 | 58 | 1014.4 |
| 20260507224948 | 73 | 227 | 0.9 | 8.7 | 0.00 | 0.00 | 0.00 | 59 | 1014.4 |
| 20260507224448 | 73 | 312 | 5.2 | 9.6 | 0.00 | 0.00 | 0.00 | 58 | 1013.6 |
| 20260507223948 | 73 | 274 | 7.8 | 7.8 | 0.00 | 0.00 | 0.00 | 58 | 1013.4 |
| 20260507223448 | 73 | 217 | 7.8 | 7.8 | 0.00 | 0.00 | 0.00 | 59 | 1014.6 |
| 20260507222951 | 72 | 239 | 6.1 | 8.7 | 0.00 | 0.00 | 0.00 | 1014.7 | |
| 20260507222948 | 72 | 239 | 6.1 | 8.7 | 0.00 | 0.00 | 0.00 | 59 | 1014.7 |
| 20260507222448 | 73 | 213 | 1.7 | 9.6 | 0.00 | 0.00 | 0.00 | 59 | 1014.7 |
| 20260507221948 | 73 | 264 | 6.1 | 7.8 | 0.00 | 0.00 | 0.00 | 59 | 1014.8 |
| 20260507221448 | 74 | 286 | 5.2 | 7.0 | 0.00 | 0.00 | 0.00 | 58 | 1014.8 |
| 20260507220948 | 73 | 212 | 2.6 | 7.0 | 0.00 | 0.00 | 0.00 | 58 | 1015.0 |
| 20260507220448 | 73 | 251 | 4.3 | 7.8 | 0.00 | 0.00 | 0.00 | 58 | 1015.1 |
| 20260507215948 | 73 | 275 | 4.3 | 7.8 | 0.00 | 0.00 | 0.00 | 59 | 1015.1 |
| 20260507215448 | 73 | 277 | 3.5 | 7.8 | 0.00 | 0.00 | 0.00 | 59 | 1015.3 |
| 20260507214948 | 73 | 277 | 3.5 | 8.7 | 0.00 | 0.00 | 0.00 | 59 | 1015.4 |
| 20260507214448 | 73 | 223 | 0.0 | 9.6 | 0.00 | 0.00 | 0.00 | 59 | 1015.5 |
| 20260507213948 | 73 | 251 | 2.6 | 9.6 | 0.00 | 0.00 | 0.00 | 59 | 1015.6 |
| 20260507213448 | 73 | 282 | 3.5 | 9.6 | 0.00 | 0.00 | 0.00 | 59 | 1015.7 |
| 20260507212948 | 74 | 248 | 4.3 | 9.6 | 0.00 | 0.00 | 0.00 | 59 | 1015.7 |
| 20260507212448 | 74 | 236 | 4.3 | 7.8 | 0.00 | 0.00 | 0.00 | 60 | 1015.7 |
| 20260507211948 | 72 | 216 | 1.7 | 8.7 | 0.00 | 0.00 | 0.00 | 61 | 1015.7 |
| 20260507211448 | 73 | 267 | 5.2 | 8.7 | 0.00 | 0.00 | 0.00 | 60 | 1015.7 |
| 20260507210948 | 74 | 268 | 3.5 | 11.3 | 0.00 | 0.00 | 0.00 | 59 | 1015.8 |
| 20260507210448 | 74 | 289 | 2.6 | 8.7 | 0.00 | 0.00 | 0.00 | 60 | 1015.8 |
| 20260507205948 | 74 | 202 | 5.2 | 9.6 | 0.00 | 0.00 | 0.00 | 58 | 1015.9 |
| 20260507205448 | 74 | 246 | 7.8 | 7.8 | 0.00 | 0.00 | 0.00 | 60 | 1015.9 |
| 20260507204948 | 74 | 289 | 6.1 | 8.7 | 0.00 | 0.00 | 0.00 | 59 | 1016.0 |
| 20260507204448 | 74 | 255 | 8.7 | 8.7 | 0.00 | 0.00 | 0.00 | 59 | 1016.1 |
| 20260507203948 | 74 | 274 | 2.6 | 10.4 | 0.00 | 0.00 | 0.00 | 59 | 1016.1 |
| 20260507203448 | 74 | 236 | 7.8 | 9.6 | 0.00 | 0.00 | 0.00 | 59 | 1016.1 |
| 20260507202948 | 74 | 116 | 0.9 | 7.0 | 0.00 | 0.00 | 0.00 | 59 | 1016.1 |
| 20260507202448 | 73 | 288 | 2.6 | 7.0 | 0.00 | 0.00 | 0.00 | 60 | 1016.1 |
| 20260507201948 | 73 | 289 | 3.5 | 8.7 | 0.00 | 0.00 | 0.00 | 59 | 1016.2 |
| 20260507201448 | 73 | 230 | 5.2 | 7.8 | 0.00 | 0.00 | 0.00 | 59 | 1016.3 |
| 20260507200948 | 74 | 232 | 7.8 | 9.6 | 0.00 | 0.00 | 0.00 | 59 | 1016.3 |
| 20260507200448 | 74 | 241 | 4.3 | 7.8 | 0.00 | 0.00 | 0.00 | 58 | 1016.4 |
| 20260507195948 | 74 | 260 | 7.0 | 7.8 | 0.00 | 0.00 | 0.00 | 57 | 1015.3 |
| 20260507195448 | 74 | 144 | 0.0 | 6.1 | 0.00 | 0.00 | 0.00 | 58 | 1016.5 |
| 20260507194948 | 73 | 182 | 1.7 | 7.8 | 0.00 | 0.00 | 0.00 | 59 | 1016.6 |
| 20260507194448 | 74 | 261 | 7.0 | 9.6 | 0.00 | 0.00 | 0.00 | 57 | 1016.6 |
| 20260507193948 | 75 | 239 | 2.6 | 6.1 | 0.00 | 0.00 | 0.00 | 57 | 1016.6 |
| 20260507193448 | 74 | 210 | 3.5 | 5.2 | 0.00 | 0.00 | 0.00 | 58 | 1016.7 |
| 20260507192948 | 73 | 258 | 3.5 | 7.8 | 0.00 | 0.00 | 0.00 | 58 | 1016.8 |
| 20260507192448 | 73 | 217 | 3.5 | 7.8 | 0.00 | 0.00 | 0.00 | 58 | 1016.8 |
| 20260507191948 | 73 | 272 | 6.1 | 7.8 | 0.00 | 0.00 | 0.00 | 59 | 1016.9 |
| 20260507191448 | 73 | 286 | 0.9 | 7.0 | 0.00 | 0.00 | 0.00 | 59 | 1017.1 |
| 20260507190948 | 73 | 271 | 5.2 | 8.7 | 0.00 | 0.00 | 0.00 | 58 | 1017.2 |
| 20260507190448 | 74 | 277 | 4.3 | 7.8 | 0.00 | 0.00 | 0.00 | 57 | 1017.2 |
| 20260507185948 | 74 | 227 | 2.6 | 7.0 | 0.00 | 0.00 | 0.00 | 56 | 1016.1 |
| 20260507185448 | 73 | 268 | 3.5 | 5.2 | 0.00 | 0.00 | 0.00 | 55 | 1017.4 |
| 20260507184948 | 74 | 136 | 0.9 | 6.1 | 0.00 | 0.00 | 0.00 | 55 | 1017.6 |
| 20260507184448 | 73 | 239 | 4.3 | 7.8 | 0.00 | 0.00 | 0.00 | 55 | 1017.6 |
| 20260507183948 | 73 | 233 | 2.6 | 7.0 | 0.00 | 0.00 | 0.00 | 56 | 1017.6 |
| 20260507183448 | 73 | 229 | 0.9 | 7.8 | 0.00 | 0.00 | 0.00 | 56 | 1017.7 |
| 20260507182948 | 72 | 216 | 5.2 | 7.8 | 0.00 | 0.00 | 0.00 | 57 | 1017.7 |
| 20260507182448 | 72 | 234 | 6.1 | 7.0 | 0.00 | 0.00 | 0.00 | 56 | 1017.7 |
| 20260507181948 | 72 | 125 | 0.0 | 3.5 | 0.00 | 0.00 | 0.00 | 57 | 1017.8 |
| 20260507181448 | 72 | 82 | 0.0 | 5.2 | 0.00 | 0.00 | 0.00 | 58 | 1017.8 |
| 20260507180948 | 72 | 199 | 1.7 | 5.2 | 0.00 | 0.00 | 0.00 | 58 | 1017.8 |
| 20260507180448 | 71 | 236 | 2.6 | 4.3 | 0.00 | 0.00 | 0.00 | 58 | 1017.9 |
| 20260507175948 | 71 | 139 | 0.0 | 0.0 | 0.00 | 0.00 | 0.00 | 59 | 1018.0 |
| 20260507175448 | 70 | 171 | 0.0 | 4.3 | 0.00 | 0.00 | 0.00 | 61 | 1018.1 |
| 20260507174948 | 70 | 181 | 0.0 | 5.2 | 0.00 | 0.00 | 0.00 | 61 | 1018.1 |
| 20260507174448 | 69 | 248 | 3.5 | 3.5 | 0.00 | 0.00 | 0.00 | 62 | 1018.2 |
| 20260507173948 | 69 | 227 | 2.6 | 3.5 | 0.00 | 0.00 | 0.00 | 62 | 1018.2 |
| 20260507173448 | 69 | 222 | 3.5 | 4.3 | 0.00 | 0.00 | 0.00 | 61 | 1018.2 |
| 20260507172948 | 69 | 175 | 0.0 | 3.5 | 0.00 | 0.00 | 0.00 | 63 | 1018.3 |
| 20260507172448 | 69 | 196 | 2.6 | 3.5 | 0.00 | 0.00 | 0.00 | 63 | 1018.3 |
| 20260507171948 | 68 | 254 | 0.9 | 4.3 | 0.00 | 0.00 | 0.00 | 63 | 1018.5 |
| 20260507171448 | 68 | 248 | 0.0 | 4.3 | 0.00 | 0.00 | 0.00 | 63 | 1018.5 |
| 20260507170948 | 68 | 236 | 0.0 | 1.7 | 0.00 | 0.00 | 0.00 | 64 | 1018.5 |
| 20260507170448 | 68 | 50 | 0.0 | 2.6 | 0.00 | 0.00 | 0.00 | 64 | 1018.6 |
| 20260507165948 | 67 | 157 | 1.7 | 2.6 | 0.00 | 0.00 | 0.00 | 65 | 1018.7 |
| 20260507165448 | 67 | 220 | 0.9 | 2.6 | 0.00 | 0.00 | 0.00 | 67 | 1018.7 |
| 20260507164948 | 66 | 95 | 0.0 | 2.6 | 0.00 | 0.00 | 0.00 | 68 | 1018.7 |
| 20260507164448 | 66 | 84 | 0.0 | 2.6 | 0.00 | 0.00 | 0.00 | 69 | 1018.7 |
| 20260507163948 | 65 | 267 | 0.0 | 3.5 | 0.00 | 0.00 | 0.00 | 70 | 1018.7 |
| 20260507163448 | 65 | 277 | 0.0 | 3.5 | 0.00 | 0.00 | 0.00 | 71 | 1018.8 |
| 20260507162948 | 65 | 274 | 2.6 | 3.5 | 0.00 | 0.00 | 0.00 | 71 | 1018.9 |
| 20260507162448 | 65 | 215 | 0.0 | 3.5 | 0.00 | 0.00 | 0.00 | 72 | 1018.9 |
| 20260507161948 | 65 | 268 | 1.7 | 4.3 | 0.00 | 0.00 | 0.00 | 72 | 1018.9 |
| 20260507161448 | 64 | 234 | 2.6 | 3.5 | 0.00 | 0.00 | 0.00 | 73 | 1018.9 |
| 20260507160948 | 64 | 206 | 0.0 | 1.7 | 0.00 | 0.00 | 0.00 | 73 | 1019.0 |
| 20260507160448 | 64 | 260 | 0.9 | 1.7 | 0.00 | 0.00 | 0.00 | 73 | 1019.0 |
| 20260507155948 | 64 | 170 | 0.0 | 0.9 | 0.00 | 0.00 | 0.00 | 75 | 1019.0 |
| 20260507155448 | 64 | 161 | 0.0 | 2.6 | 0.00 | 0.00 | 0.00 | 74 | 1019.0 |
| 20260507154948 | 63 | 140 | 0.0 | 2.6 | 0.00 | 0.00 | 0.00 | 76 | 1019.1 |
| 20260507154448 | 63 | 151 | 0.0 | 2.6 | 0.00 | 0.00 | 0.00 | 77 | 1019.1 |
| 20260507153948 | 62 | 151 | 2.6 | 2.6 | 0.00 | 0.00 | 0.00 | 78 | 1019.2 |
| 20260507153448 | 62 | 285 | 0.0 | 0.9 | 0.00 | 0.00 | 0.00 | 80 | 1019.2 |
| 20260507152948 | 62 | 105 | 0.0 | 2.6 | 0.00 | 0.00 | 0.00 | 81 | 1019.3 |
| 20260507152448 | 61 | 232 | 0.9 | 2.6 | 0.00 | 0.00 | 0.00 | 81 | 1019.3 |
| 20260507151948 | 61 | 237 | 0.0 | 0.9 | 0.00 | 0.00 | 0.00 | 82 | 1019.3 |
| 20260507151448 | 61 | 189 | 0.0 | 1.7 | 0.00 | 0.00 | 0.00 | 83 | 1019.3 |
| 20260507150948 | 61 | 150 | 0.0 | 2.6 | 0.00 | 0.00 | 0.00 | 82 | 1019.3 |
| 20260507150448 | 60 | 226 | 1.7 | 1.7 | 0.00 | 0.00 | 0.00 | 82 | 1019.3 |
| 20260507145948 | 60 | 310 | 0.0 | 2.6 | 0.00 | 0.00 | 0.00 | 83 | 1019.3 |
| 20260507145448 | 60 | 241 | 0.0 | 1.7 | 0.00 | 0.00 | 0.00 | 82 | 1019.3 |
| 20260507144948 | 60 | 243 | 0.9 | 2.6 | 0.00 | 0.00 | 0.00 | 80 | 1019.2 |
| 20260507144448 | 61 | 157 | 0.0 | 1.7 | 0.00 | 0.00 | 0.00 | 81 | 1019.2 |
| 20260507143948 | 61 | 109 | 0.0 | 0.9 | 0.00 | 0.00 | 0.00 | 81 | 1019.1 |
| 20260507143448 | 61 | 116 | 0.0 | 1.7 | 0.00 | 0.00 | 0.00 | 80 | 1019.1 |
| 20260507142948 | 61 | 123 | 1.7 | 1.7 | 0.00 | 0.00 | 0.00 | 79 | 1019.1 |
| 20260507142448 | 61 | 33 | 0.0 | 0.0 | 0.00 | 0.00 | 0.00 | 81 | 1019.0 |
| 20260507141948 | 60 | 33 | 0.0 | 0.0 | 0.00 | 0.00 | 0.00 | 82 | 1018.9 |
| 20260507141448 | 59 | 33 | 0.0 | 0.0 | 0.00 | 0.00 | 0.00 | 84 | 1018.8 |
| 20260507140948 | 59 | 33 | 0.0 | 0.0 | 0.00 | 0.00 | 0.00 | 85 | 1018.8 |
| 20260507140448 | 58 | 33 | 0.0 | 0.0 | 0.00 | 0.00 | 0.00 | 85 | 1018.7 |
| 20260507135948 | 57 | 33 | 0.0 | 0.0 | 0.00 | 0.00 | 0.00 | 87 | 1018.7 |
| 20260507135448 | 56 | 33 | 0.0 | 0.0 | 0.00 | 0.00 | 0.00 | 88 | 1018.7 |
| 20260507134948 | 56 | 33 | 0.0 | 0.0 | 0.00 | 0.00 | 0.00 | 89 | 1018.6 |
| 20260507134448 | 55 | 33 | 0.0 | 0.0 | 0.00 | 0.00 | 0.00 | 89 | 1017.3 |
| 20260507133948 | 55 | 33 | 0.0 | 1.7 | 0.00 | 0.00 | 0.00 | 90 | 1018.5 |
| 20260507133448 | 54 | 68 | 0.9 | 0.9 | 0.00 | 0.00 | 0.00 | 90 | 1017.0 |
| 20260507132948 | 55 | 52 | 0.0 | 0.0 | 0.00 | 0.00 | 0.00 | 90 | 1016.8 |
| 20260507132448 | 54 | 52 | 0.0 | 0.0 | 0.00 | 0.00 | 0.00 | 90 | 1016.8 |
| 20260507131948 | 54 | 52 | 0.0 | 0.0 | 0.00 | 0.00 | 0.00 | 90 | 1017.9 |
| 20260507131448 | 54 | 52 | 0.0 | 0.0 | 0.00 | 0.00 | 0.00 | 90 | 1017.8 |
| 20260507131023 | 54 | 52 | 0.0 | 0.0 | 0.00 | 0.00 | 0.00 | 89 | 1017.8 |
| 20260507130948 | 54 | 52 | 0.0 | 0.0 | 0.00 | 0.00 | 0.00 | 89 | 1017.8 |
| 20260507130448 | 54 | 52 | 0.0 | 0.9 | 0.00 | 0.00 | 0.00 | 89 | 1017.8 |
| 20260507125948 | 54 | 68 | 0.9 | 1.7 | 0.00 | 0.00 | 0.00 | 90 | 1017.8 |
| 20260507125448 | 55 | 50 | 1.7 | 1.7 | 0.00 | 0.00 | 0.00 | 90 | 1017.8 |
| 20260507124948 | 55 | 337 | 0.0 | 0.0 | 0.00 | 0.00 | 0.00 | 88 | 1017.8 |
| 20260507124448 | 55 | 337 | 0.0 | 0.0 | 0.00 | 0.00 | 0.00 | 88 | 1017.7 |
| 20260507123948 | 55 | 337 | 0.0 | 0.0 | 0.00 | 0.00 | 0.00 | 88 | 1017.7 |
| 20260507123448 | 55 | 337 | 0.0 | 0.0 | 0.00 | 0.00 | 0.00 | 88 | 1017.7 |
| 20260507122949 | 55 | 337 | 0.0 | 0.0 | 0.00 | 0.00 | 0.00 | 88 | 1017.7 |
| 20260507122448 | 55 | 337 | 0.0 | 0.9 | 0.00 | 0.00 | 0.00 | 89 | 1017.7 |
| 20260507121949 | 55 | 16 | 0.0 | 0.0 | 0.00 | 0.00 | 0.00 | 89 | 1017.6 |
| 20260507121449 | 54 | 30 | 0.0 | 0.9 | 0.00 | 0.00 | 0.00 | 89 | 1017.7 |
| 20260507120948 | 55 | 60 | 0.9 | 1.7 | 0.00 | 0.00 | 0.00 | 88 | 1017.7 |
| 20260507120449 | 55 | 75 | 0.9 | 1.7 | 0.00 | 0.00 | 0.00 | 88 | 1017.8 |
| 20260507115949 | 55 | 64 | 0.9 | 0.9 | 0.00 | 0.00 | 0.00 | 88 | 1017.8 |
| 20260507115449 | 55 | 92 | 0.0 | 0.0 | 0.00 | 0.00 | 0.00 | 88 | 1017.8 |
| 20260507114949 | 55 | 92 | 0.0 | 0.0 | 0.00 | 0.00 | 0.00 | 89 | 1017.9 |
| 20260507114449 | 55 | 92 | 0.0 | 0.0 | 0.00 | 0.00 | 0.00 | 88 | 1017.8 |
| 20260507113949 | 55 | 92 | 0.0 | 0.9 | 0.00 | 0.00 | 0.00 | 88 | 1017.8 |
| 20260507113449 | 55 | 116 | 0.9 | 1.7 | 0.00 | 0.00 | 0.00 | 88 | 1017.9 |
| 20260507112949 | 55 | 40 | 0.0 | 0.9 | 0.00 | 0.00 | 0.00 | 88 | 1017.8 |
| 20260507112449 | 55 | 57 | 0.9 | 0.9 | 0.00 | 0.00 | 0.00 | 88 | 1018.0 |
| 20260507111949 | 55 | 67 | 0.9 | 1.7 | 0.00 | 0.00 | 0.00 | 87 | 1018.1 |
| 20260507111449 | 56 | 247 | 0.0 | 0.0 | 0.00 | 0.00 | 0.00 | 87 | 1018.0 |
| 20260507110949 | 56 | 247 | 0.0 | 0.0 | 0.00 | 0.00 | 0.00 | 88 | 1018.1 |
| 20260507110449 | 56 | 247 | 0.0 | 0.0 | 0.00 | 0.00 | 0.00 | 87 | 1018.1 |
| 20260507105949 | 56 | 247 | 0.0 | 0.0 | 0.00 | 0.00 | 0.00 | 87 | 1018.2 |
| 20260507105449 | 56 | 247 | 0.0 | 0.0 | 0.00 | 0.00 | 0.00 | 87 | 1018.2 |
| 20260507104949 | 56 | 247 | 0.0 | 0.0 | 0.00 | 0.00 | 0.00 | 87 | 1018.2 |
| 20260507104449 | 56 | 247 | 0.0 | 0.0 | 0.00 | 0.00 | 0.00 | 87 | 1018.3 |
| 20260507103949 | 56 | 247 | 0.0 | 0.0 | 0.00 | 0.00 | 0.00 | 88 | 1018.3 |
| 20260507103449 | 56 | 247 | 0.0 | 1.7 | 0.00 | 0.00 | 0.00 | 88 | 1018.3 |
| 20260507102949 | 56 | 291 | 0.0 | 0.0 | 0.00 | 0.00 | 0.00 | 87 | 1017.1 |
| 20260507102449 | 56 | 54 | 0.0 | 0.0 | 0.00 | 0.00 | 0.00 | 87 | 1016.0 |
| 20260507101949 | 56 | 54 | 0.0 | 0.0 | 0.00 | 0.00 | 0.00 | 87 | 1018.2 |
| 20260507101449 | 56 | 54 | 0.0 | 0.0 | 0.00 | 0.00 | 0.00 | 86 | 1018.2 |
| 20260507100949 | 56 | 101 | 0.0 | 0.0 | 0.00 | 0.00 | 0.00 | 87 | 1018.1 |
| 20260507100449 | 56 | 108 | 0.0 | 0.9 | 0.00 | 0.00 | 0.00 | 87 | 1018.1 |
| 20260507095949 | 56 | 37 | 0.0 | 0.0 | 0.00 | 0.00 | 0.00 | 87 | 1018.1 |
| 20260507095449 | 56 | 37 | 0.0 | 0.0 | 0.00 | 0.00 | 0.00 | 87 | 1018.1 |
| 20260507094949 | 56 | 37 | 0.0 | 1.7 | 0.00 | 0.00 | 0.00 | 87 | 1018.2 |
| 20260507094449 | 56 | 288 | 0.0 | 0.0 | 0.00 | 0.00 | 0.00 | 88 | 1018.1 |
| 20260507093949 | 56 | 288 | 0.0 | 0.0 | 0.00 | 0.00 | 0.00 | 87 | 1018.3 |
| 20260507093449 | 56 | 288 | 0.0 | 0.0 | 0.00 | 0.00 | 0.00 | 87 | 1018.3 |
| 20260507092949 | 56 | 288 | 0.0 | 0.0 | 0.00 | 0.00 | 0.00 | 87 | 1018.3 |
| 20260507092449 | 56 | 288 | 0.0 | 2.6 | 0.00 | 0.00 | 0.00 | 87 | 1018.2 |
| 20260507091949 | 57 | 80 | 2.6 | 2.6 | 0.00 | 0.00 | 0.00 | 86 | 1018.3 |
| 20260507091449 | 57 | 127 | 0.9 | 0.9 | 0.00 | 0.00 | 0.00 | 86 | 1018.3 |
| 20260507090949 | 57 | 30 | 0.0 | 0.0 | 0.00 | 0.00 | 0.00 | 86 | 1018.3 |
| 20260507090449 | 57 | 30 | 0.0 | 0.0 | 0.00 | 0.00 | 0.00 | 86 | 1018.3 |
| 20260507085949 | 57 | 43 | 0.0 | 0.9 | 0.00 | 0.00 | 0.00 | 86 | 1018.3 |
| 20260507085449 | 57 | 45 | 0.0 | 0.0 | 0.00 | 0.00 | 0.00 | 86 | 1018.3 |
| 20260507084949 | 57 | 45 | 0.0 | 0.0 | 0.00 | 0.00 | 0.00 | 86 | 1018.3 |
| 20260507084449 | 57 | 61 | 0.0 | 0.0 | 0.00 | 0.00 | 0.00 | 86 | 1018.3 |
| 20260507083949 | 57 | 52 | 0.0 | 0.9 | 0.00 | 0.00 | 0.00 | 86 | 1018.2 |
| 20260507083449 | 57 | 54 | 0.0 | 1.7 | 0.00 | 0.00 | 0.00 | 85 | 1018.2 |
| 20260507082949 | 57 | 78 | 0.0 | 0.0 | 0.00 | 0.00 | 0.00 | 86 | 1018.3 |
| 20260507082449 | 57 | 78 | 0.0 | 0.0 | 0.00 | 0.00 | 0.00 | 85 | 1018.3 |
| 20260507081949 | 57 | 78 | 0.0 | 0.9 | 0.00 | 0.00 | 0.00 | 85 | 1018.3 |
| 20260507081449 | 57 | 75 | 0.0 | 1.7 | 0.00 | 0.00 | 0.00 | 85 | 1018.3 |
| 20260507080949 | 58 | 149 | 0.0 | 0.0 | 0.00 | 0.00 | 0.00 | 85 | 1018.5 |
| 20260507080449 | 58 | 149 | 0.0 | 0.0 | 0.00 | 0.00 | 0.00 | 86 | 1018.5 |
| 20260507075949 | 58 | 149 | 0.0 | 0.0 | 0.00 | 0.00 | 0.00 | 85 | 1018.3 |
| 20260507075449 | 58 | 149 | 0.0 | 0.9 | 0.00 | 0.00 | 0.00 | 85 | 1018.3 |
| 20260507074949 | 58 | 133 | 0.0 | 0.0 | 0.00 | 0.00 | 0.00 | 85 | 1018.3 |
| 20260507074449 | 58 | 133 | 0.0 | 0.0 | 0.00 | 0.00 | 0.00 | 85 | 1018.3 |
| 20260507073949 | 58 | 133 | 0.0 | 0.0 | 0.00 | 0.00 | 0.00 | 84 | 1018.2 |
| 20260507073449 | 58 | 133 | 0.0 | 0.0 | 0.00 | 0.00 | 0.00 | 84 | 1018.2 |
| 20260507072949 | 58 | 133 | 0.0 | 0.0 | 0.00 | 0.00 | 0.00 | 84 | 1018.2 |
| 20260507072449 | 58 | 111 | 0.0 | 1.7 | 0.00 | 0.00 | 0.00 | 83 | 1018.2 |
| 20260507071949 | 59 | 168 | 0.0 | 0.9 | 0.00 | 0.00 | 0.00 | 82 | 1018.3 |
| 20260507071449 | 59 | 45 | 0.0 | 0.0 | 0.00 | 0.00 | 0.00 | 83 | 1018.3 |
| 20260507070949 | 59 | 45 | 0.0 | 0.0 | 0.00 | 0.00 | 0.00 | 83 | 1018.3 |
| 20260507070449 | 59 | 45 | 0.0 | 0.0 | 0.00 | 0.00 | 0.00 | 82 | 1018.6 |
| 20260507065949 | 59 | 45 | 0.0 | 0.0 | 0.00 | 0.00 | 0.00 | 82 | 1018.6 |
| 20260507065449 | 59 | 45 | 0.0 | 0.0 | 0.00 | 0.00 | 0.00 | 82 | 1018.6 |
| 20260507064949 | 59 | 45 | 0.0 | 0.0 | 0.00 | 0.00 | 0.00 | 82 | 1018.7 |
| 20260507064449 | 59 | 45 | 0.0 | 0.0 | 0.00 | 0.00 | 0.00 | 82 | 1018.7 |
| 20260507063949 | 59 | 45 | 0.0 | 0.0 | 0.00 | 0.00 | 0.00 | 82 | 1018.8 |
| 20260507063449 | 59 | 45 | 0.0 | 0.0 | 0.00 | 0.00 | 0.00 | 82 | 1018.9 |
| 20260507062949 | 59 | 45 | 0.0 | 0.0 | 0.00 | 0.00 | 0.00 | 81 | 1018.9 |
| 20260507062449 | 59 | 45 | 0.0 | 0.0 | 0.00 | 0.00 | 0.00 | 81 | 1018.8 |
| 20260507061949 | 59 | 45 | 0.0 | 0.0 | 0.00 | 0.00 | 0.00 | 81 | 1018.8 |
| 20260507061449 | 59 | 45 | 0.0 | 0.0 | 0.00 | 0.00 | 0.00 | 81 | 1018.8 |
| 20260507060949 | 59 | 54 | 0.0 | 0.0 | 0.00 | 0.00 | 0.00 | 81 | 1018.9 |
| 20260507060449 | 59 | 74 | 0.0 | 0.0 | 0.00 | 0.00 | 0.00 | 82 | 1018.9 |
| 20260507055949 | 59 | 74 | 0.0 | 0.0 | 0.00 | 0.00 | 0.00 | 82 | 1018.9 |
| 20260507055449 | 59 | 74 | 0.0 | 0.0 | 0.00 | 0.00 | 0.00 | 81 | 1018.9 |
| 20260507054949 | 59 | 74 | 0.0 | 0.0 | 0.00 | 0.00 | 0.00 | 81 | 1018.8 |
| 20260507054449 | 59 | 74 | 0.0 | 0.0 | 0.00 | 0.00 | 0.00 | 81 | 1018.7 |
| 20260507053949 | 59 | 74 | 0.0 | 0.0 | 0.00 | 0.00 | 0.00 | 81 | 1018.6 |
| 20260507053449 | 60 | 74 | 0.0 | 0.0 | 0.00 | 0.00 | 0.00 | 81 | 1018.6 |
| 20260507052949 | 60 | 2 | 0.0 | 0.0 | 0.00 | 0.00 | 0.00 | 81 | 1018.5 |
| 20260507052449 | 60 | 2 | 0.0 | 0.9 | 0.00 | 0.00 | 0.00 | 82 | 1018.3 |
| 20260507051949 | 60 | 12 | 0.9 | 0.9 | 0.00 | 0.00 | 0.00 | 81 | 1018.3 |
| 20260507051449 | 60 | 56 | 0.0 | 0.9 | 0.00 | 0.00 | 0.00 | 81 | 1018.1 |
| 20260507050949 | 60 | 63 | 0.9 | 1.7 | 0.00 | 0.00 | 0.00 | 81 | 1018.2 |
| 20260507050449 | 60 | 139 | 0.9 | 1.7 | 0.00 | 0.00 | 0.00 | 80 | 1018.1 |
| 20260507045949 | 61 | 232 | 0.0 | 0.0 | 0.00 | 0.00 | 0.00 | 80 | 1018.2 |
| 20260507045449 | 61 | 243 | 0.0 | 1.7 | 0.00 | 0.00 | 0.00 | 81 | 1018.1 |
| 20260507044949 | 61 | 291 | 0.0 | 0.0 | 0.00 | 0.00 | 0.00 | 81 | 1018.0 |
| 20260507044449 | 61 | 291 | 0.0 | 0.9 | 0.00 | 0.00 | 0.00 | 82 | 1018.1 |